Temp
73 80 81 73 58 59 55 61 66 65 65 72 74 70 65 68 67 54 71 73 77 73 71 71 71 71 71 71 71 71 71 71 71 71 71 71 71 71 71 71 72 72 73 74 75 75 75 74 75
76 83 74 67 54 51 57 66 65 67 71 72 71 68 65 64 74 68 68 74 77 74 72 69 70 71 70 70 70 70 70 70 71 70 70 70 70 70 70 70 71 71 72 73 74 74 74 73 74
74 82 65 60 56 54 57 65 67 71 72 68 67 68 66 66 72 71 72 75 76 73 72 68 69 70 70 70 70 70 70 70 70 70 70 69 69 69 69 69 69 69 70 71 73 74 73 72 73
74 70 68 55 55 64 64 66 70 67 69 69 69 65 70 74 71 73 74 75 73 72 70 68 69 70 70 69 69 69 69 69 69 68 68 68 68 68 68 68 68 68 69 69 71 72 73 72 71
71 67 56 54 58 66 66 69 68 67 66 68 69 64 65 71 74 74 72 74 71 69 66 66 69 69 69 69 69 68 68 68 67 67 67 67 66 66 66 66 67 67 67 68 69 70 71 71 71
62 64 53 53 61 67 66 69 68 66 69 67 63 64 65 71 71 71 72 71 72 68 67 66 66 67 68 68 68 67 67 66 66 65 65 65 65 65 65 65 65 66 66 67 67 68 68 69 69
58 57 53 58 60 63 66 68 63 66 67 67 71 61 64 67 71 72 71 71 70 68 67 64 63 64 65 65 65 65 65 64 64 63 63 63 63 64 64 64 64 65 65 65 66 66 67 67 68
63 60 55 57 58 59 64 66 67 65 63 68 71 61 60 66 70 70 69 68 67 66 65 64 62 61 60 59 62 63 63 62 62 61 61 61 62 64 64 64 63 64 63 64 64 64 65 66 67
67 53 52 58 58 59 65 61 65 66 62 65 69 64 68 69 68 65 63 63 63 65 65 64 63 63 63 61 60 60 61 61 61 61 61 59 58 59 60 61 63 63 62 63 63 64 64 64 64
59 52 57 63 62 60 64 61 63 62 63 64 67 71 68 67 64 61 60 59 60 60 62 63 62 62 62 68 57 58 60 58 59 59 58 58 57 57 60 57 60 61 62 62 64 64 64 62 58
60 54 62 64 61 62 61 60 63 57 57 64 60 66 64 63 63 62 61 61 60 62 61 62 63 62 60 60 58 57 57 56 57 58 56 55 56 54 54 53 54 54 58 56 59 59 59 60 59
55 63 64 64 60 58 58 62 59 62 62 69 68 67 67 63 63 62 62 63 62 62 62 62 62 62 60 58 57 57 57 55 55 55 56 52 51 51 52 52 53 53 54 55 55 55 58 59 60
56 59 63 63 61 59 61 56 57 61 67 69 71 68 65 64 64 64 65 65 64 62 62 61 61 60 61 59 57 57 55 54 54 55 55 53 51 50 52 52 53 53 54 55 55 56 57 58 59
59 59 60 62 61 59 55 54 55 60 65 62 64 63 62 63 64 63 64 63 63 63 61 61 60 60 60 57 57 55 55 54 54 53 53 55 52 51 51 52 52 53 55 55 55 55 56 56 57
59 53 58 60 59 57 54 52 52 62 64 62 64 64 64 64 65 64 63 63 63 62 62 60 59 60 58 57 56 55 54 55 52 53 54 54 54 52 52 51 54 56 58 55 55 55 56 56 57
52 52 47 54 56 54 51 50 61 63 57 61 64 64 64 65 64 64 64 63 62 61 60 59 61 57 56 55 54 55 53 52 52 52 53 54 55 54 51 51 54 55 54 56 56 54 54 54 55
49 43 47 51 57 53 51 51 60 61 60 60 61 63 63 62 62 62 62 62 61 60 58 56 55 54 54 54 53 52 53 51 52 52 52 53 54 54 52 52 53 53 55 52 54 55 54 52 52
44 44 49 46 52 52 50 52 59 64 63 61 60 60 57 60 61 62 61 62 61 59 57 55 55 54 53 51 51 50 50 50 51 51 52 54 53 54 54 54 52 52 52 53 55 52 53 52 52
50 49 48 51 51 47 49 52 59 61 61 59 60 58 57 58 57 59 60 59 58 56 55 55 53 52 50 48 47 47 47 49 49 51 53 54 57 56 54 52 53 52 50 53 56 53 54 51 52
48 46 46 52 52 47 48 51 58 60 58 57 59 56 54 52 53 56 56 56 56 54 54 54 54 53 52 50 48 48 47 49 49 51 53 54 56 53 54 54 53 52 51 54 55 55 52 52 54
47 46 47 47 49 50 46 45 52 55 57 58 57 56 56 53 52 52 53 53 53 52 52 54 53 52 51 50 49 49 48 48 48 49 51 52 54 52 52 54 53 53 53 52 53 55 54 51 52
45 51 50 47 42 38 44 35 52 54 54 54 55 53 54 53 54 53 53 52 52 51 53 53 53 51 51 50 49 48 47 46 47 48 49 50 53 52 52 52 51 52 53 52 53 55 55 54 51
46 49 48 46 40 39 42 35 47 52 52 53 54 55 54 54 54 53 53 54 53 51 50 50 51 50 49 49 49 48 47 48 48 48 48 50 50 52 52 52 51 51 51 51 52 54 54 54 52
49 46 46 42 38 25 38 38 41 46 49 51 54 54 54 54 54 53 54 54 50 50 49 49 49 49 49 48 48 48 47 47 46 47 47 48 48 49 51 52 51 51 51 51 52 55 54 55 51
43 39 26 25 21 25 36 33 42 48 50 50 52 53 53 53 52 51 50 49 48 47 48 49 49 47 48 47 47 48 48 48 47 47 46 47 47 47 48 50 48 48 52 52 53 54 54 52 52
38 39 30 24 25 29 34 31 43 49 52 53 55 54 53 52 52 51 50 49 48 48 48 48 48 47 47 47 47 48 49 47 48 48 47 46 46 47 49 49 49 51 52 52 54 54 54 54 53
38 32 41 30 23 27 36 42 48 50 50 52 52 53 51 51 51 51 51 50 49 47 48 48 48 48 48 47 46 47 48 48 48 48 47 46 47 50 49 49 50 50 52 52 54 53 53 53 53
39 43 32 31 23 23 29 35 39 43 46 49 48 49 49 50 51 51 51 51 50 49 48 48 48 47 47 47 46 47 47 48 48 48 47 48 48 49 49 49 50 50 50 52 54 53 53 52 52
34 31 37 39 34 28 25 33 46 46 48 46 47 50 49 49 51 51 51 51 50 49 48 47 47 47 46 47 46 46 46 48 48 47 47 49 49 49 49 49 50 50 50 51 53 54 53 52 51
38 40 42 32 28 30 29 32 50 48 48 48 48 50 49 51 52 52 52 50 48 47 47 46 46 46 46 46 46 45 46 47 47 47 48 49 48 49 49 51 50 51 52 52 54 53 53 52 51
MSLP
1011.61 1010.76 1010.47 1010.29 1010.40 1009.12 1007.74 1006.26 1005.65 1005.76 1005.91 1006.21 1006.55 1007.02 1007.60 1007.76 1008.26 1010.28 1010.83 1011.09 1011.24 1012.09 1013.00 1013.42 1013.63 1013.88 1014.26 1014.49 1014.68 1014.81 1014.90 1014.98 1015.04 1015.05 1015.10 1015.13 1015.16 1015.09 1015.05 1014.98 1014.85 1014.77 1014.67 1014.52 1014.36 1014.24 1014.17 1014.18 1014.15
1011.54 1010.72 1010.56 1010.28 1009.79 1008.48 1006.80 1005.81 1005.76 1005.99 1006.20 1006.70 1007.07 1007.31 1007.64 1007.96 1008.48 1010.18 1010.97 1011.21 1011.35 1012.06 1012.90 1013.57 1013.89 1014.12 1014.38 1014.63 1014.77 1014.94 1015.05 1015.15 1015.25 1015.29 1015.29 1015.35 1015.41 1015.41 1015.30 1015.22 1015.12 1015.05 1014.95 1014.82 1014.57 1014.44 1014.35 1014.31 1014.24
1011.89 1010.90 1010.73 1009.87 1009.07 1007.94 1006.64 1006.07 1006.03 1006.23 1006.66 1007.03 1007.28 1007.55 1007.89 1008.50 1009.08 1010.03 1010.85 1011.10 1011.36 1012.05 1012.72 1013.73 1013.97 1014.20 1014.57 1014.75 1014.92 1015.02 1015.21 1015.37 1015.51 1015.59 1015.60 1015.61 1015.62 1015.64 1015.58 1015.50 1015.42 1015.36 1015.26 1015.03 1014.79 1014.57 1014.53 1014.47 1014.43
1011.31 1010.94 1010.59 1009.78 1008.58 1007.06 1006.29 1006.07 1006.25 1006.55 1007.01 1007.41 1007.62 1007.88 1008.26 1008.89 1009.38 1010.10 1010.89 1011.28 1011.73 1012.25 1013.00 1013.88 1014.08 1014.33 1014.58 1014.86 1015.08 1015.16 1015.35 1015.56 1015.76 1015.82 1015.78 1015.78 1015.91 1015.94 1015.81 1015.68 1015.58 1015.50 1015.40 1015.24 1014.97 1014.72 1014.54 1014.59 1014.64
1011.40 1010.75 1010.28 1009.36 1008.25 1006.98 1006.23 1006.34 1006.57 1006.82 1006.92 1007.35 1007.88 1008.14 1008.69 1009.54 1009.97 1010.55 1011.20 1011.48 1011.99 1012.70 1013.44 1014.00 1014.22 1014.41 1014.70 1014.86 1015.05 1015.30 1015.51 1015.71 1015.82 1015.84 1015.94 1016.00 1016.00 1015.91 1015.87 1015.81 1015.72 1015.59 1015.47 1015.34 1015.21 1014.97 1014.75 1014.58 1014.68
1011.03 1010.53 1010.02 1008.82 1007.39 1006.62 1006.58 1006.81 1006.99 1007.22 1007.30 1007.68 1008.11 1008.63 1009.14 1009.82 1010.12 1010.80 1011.37 1011.76 1012.18 1012.97 1013.66 1014.25 1014.50 1014.67 1014.87 1015.12 1015.39 1015.48 1015.58 1015.77 1015.94 1016.04 1016.08 1016.11 1016.17 1016.14 1016.06 1015.98 1015.89 1015.73 1015.55 1015.41 1015.27 1015.15 1015.02 1014.87 1014.78
1011.07 1010.48 1009.70 1008.76 1007.65 1007.03 1007.05 1007.31 1007.58 1007.56 1007.52 1007.61 1007.89 1008.75 1009.51 1010.02 1010.18 1010.75 1011.41 1011.91 1012.42 1012.94 1013.69 1014.42 1014.78 1015.04 1015.17 1015.32 1015.47 1015.62 1015.76 1015.81 1015.99 1016.14 1016.32 1016.40 1016.31 1016.20 1016.12 1016.04 1015.89 1015.76 1015.65 1015.46 1015.30 1015.19 1015.06 1014.94 1014.72
1011.05 1010.46 1009.60 1008.50 1008.11 1007.81 1008.05 1008.03 1008.09 1008.22 1008.09 1008.03 1008.10 1008.81 1009.61 1010.30 1010.63 1011.08 1011.54 1012.10 1012.78 1013.40 1013.73 1014.11 1014.69 1015.12 1015.33 1015.49 1015.57 1015.65 1015.74 1015.92 1016.11 1016.24 1016.40 1016.29 1016.09 1015.93 1015.84 1015.80 1015.88 1015.74 1015.61 1015.41 1015.26 1015.09 1014.97 1014.78 1014.68
1011.11 1010.70 1009.66 1008.69 1008.28 1008.32 1008.37 1008.57 1008.46 1008.42 1008.68 1008.48 1008.57 1009.03 1009.86 1010.47 1011.15 1011.66 1012.04 1012.53 1013.00 1013.60 1013.96 1014.06 1014.45 1014.75 1015.02 1015.37 1015.63 1015.77 1015.87 1015.93 1015.99 1016.09 1016.07 1015.97 1015.89 1015.87 1015.79 1015.76 1015.69 1015.62 1015.47 1015.29 1015.06 1014.86 1014.65 1014.57 1014.52
1011.16 1010.49 1009.42 1009.04 1008.96 1009.19 1009.17 1009.21 1009.20 1008.97 1008.73 1008.56 1008.49 1008.60 1009.51 1010.39 1011.24 1011.89 1012.20 1012.51 1012.96 1013.48 1013.92 1014.23 1014.40 1014.65 1014.89 1014.91 1015.52 1015.67 1015.81 1015.78 1015.76 1015.77 1015.83 1016.00 1016.01 1015.90 1015.71 1015.62 1015.47 1015.34 1015.29 1015.11 1014.74 1014.40 1014.26 1014.17 1014.16
1010.83 1010.24 1009.52 1009.47 1009.87 1010.21 1010.05 1009.78 1009.43 1009.33 1008.93 1008.09 1008.50 1008.75 1009.57 1010.28 1010.94 1011.55 1012.12 1012.48 1012.88 1013.27 1013.71 1014.09 1014.51 1014.56 1014.83 1015.01 1015.23 1015.52 1015.66 1015.72 1015.72 1015.76 1015.84 1015.96 1015.94 1015.81 1015.72 1015.60 1015.43 1015.30 1015.06 1015.00 1014.65 1014.31 1014.02 1013.94 1013.78
1010.88 1010.11 1009.97 1009.88 1010.35 1010.76 1010.53 1010.23 1009.84 1009.38 1008.81 1008.13 1008.18 1008.36 1009.20 1009.87 1010.53 1011.01 1011.55 1012.00 1012.33 1012.79 1013.36 1013.83 1014.00 1014.49 1014.71 1015.08 1015.37 1015.42 1015.58 1015.83 1015.85 1015.83 1015.75 1015.91 1016.15 1016.08 1015.95 1015.88 1015.73 1015.56 1015.27 1015.04 1014.67 1014.35 1013.92 1013.84 1013.65
1011.16 1010.61 1010.25 1010.09 1010.38 1010.74 1010.71 1010.45 1010.22 1008.74 1008.24 1007.84 1007.87 1008.04 1008.65 1009.46 1009.85 1010.17 1010.63 1011.08 1011.53 1012.20 1012.79 1013.35 1013.93 1014.35 1014.66 1014.97 1015.15 1015.38 1015.70 1015.91 1015.87 1015.91 1016.07 1016.21 1016.42 1016.55 1016.17 1015.97 1015.68 1015.43 1015.17 1014.98 1014.76 1014.39 1013.97 1013.77 1013.71
1011.22 1010.95 1010.57 1010.29 1010.35 1010.53 1010.80 1010.15 1010.10 1007.89 1007.34 1007.44 1007.56 1007.93 1008.37 1009.02 1009.51 1009.96 1010.44 1010.99 1011.43 1012.00 1012.71 1013.21 1013.79 1014.26 1014.53 1015.06 1015.26 1015.61 1015.88 1016.05 1016.21 1016.31 1016.32 1016.38 1016.56 1016.54 1016.28 1016.03 1015.80 1015.52 1015.06 1014.85 1014.69 1014.49 1014.18 1013.92 1013.63
1011.52 1011.32 1010.51 1009.89 1010.23 1010.74 1010.94 1009.84 1009.01 1007.52 1007.48 1007.43 1007.54 1007.71 1008.07 1008.61 1009.07 1009.72 1010.34 1010.94 1011.28 1011.86 1012.59 1013.32 1013.78 1014.11 1014.67 1015.13 1015.39 1015.85 1016.16 1016.42 1016.57 1016.55 1016.33 1016.37 1016.44 1016.28 1016.10 1016.07 1015.80 1015.32 1015.00 1014.96 1014.66 1014.33 1013.93 1013.82 1013.50
1011.75 1011.31 1010.69 1010.28 1010.62 1011.10 1011.29 1009.31 1007.47 1006.99 1007.19 1007.41 1007.16 1007.29 1007.57 1008.05 1008.68 1009.26 1009.83 1010.64 1011.24 1012.01 1012.59 1013.40 1013.95 1014.45 1014.87 1015.30 1015.58 1015.88 1016.28 1016.62 1016.67 1016.74 1016.64 1016.54 1016.60 1016.66 1016.58 1016.43 1015.89 1015.54 1015.27 1015.09 1014.87 1014.53 1014.07 1013.92 1013.66
1011.63 1011.27 1010.61 1010.39 1010.54 1010.90 1011.09 1009.44 1007.41 1007.10 1007.21 1007.21 1007.19 1007.18 1007.40 1007.73 1008.45 1009.14 1009.64 1010.61 1011.43 1012.20 1012.96 1013.72 1014.33 1014.76 1015.20 1015.59 1015.77 1016.25 1016.47 1016.69 1016.77 1016.83 1016.81 1016.90 1016.89 1016.83 1016.70 1016.43 1016.10 1015.80 1015.49 1015.27 1014.92 1014.55 1014.17 1014.12 1014.32
1010.92 1011.07 1010.47 1010.37 1010.61 1010.69 1010.59 1009.20 1008.03 1007.02 1006.76 1006.64 1006.85 1006.87 1007.37 1008.12 1008.56 1009.20 1009.93 1010.73 1011.71 1012.26 1013.26 1013.94 1014.71 1015.08 1015.46 1015.80 1016.23 1016.51 1016.67 1016.76 1016.78 1016.99 1017.00 1017.00 1017.01 1016.89 1016.62 1016.31 1016.28 1016.15 1015.77 1015.33 1014.93 1014.61 1014.43 1014.40 1014.84
1010.70 1010.71 1010.64 1010.17 1010.62 1010.53 1010.11 1008.92 1007.27 1006.55 1006.19 1006.20 1006.45 1007.01 1007.90 1008.94 1009.41 1009.72 1010.40 1011.21 1012.11 1012.76 1013.50 1014.31 1014.87 1015.34 1015.69 1015.99 1016.42 1016.67 1016.83 1016.86 1017.00 1017.07 1016.83 1016.94 1016.86 1016.86 1016.68 1016.64 1016.42 1016.40 1016.03 1015.47 1014.93 1014.58 1014.64 1014.97 1015.05
1010.79 1011.03 1010.94 1010.64 1010.82 1010.92 1010.08 1008.77 1006.44 1006.16 1005.82 1005.79 1006.49 1007.64 1008.42 1009.53 1010.19 1010.60 1011.09 1011.61 1012.54 1013.33 1013.82 1014.31 1014.98 1015.43 1015.65 1015.95 1016.34 1016.61 1016.78 1016.95 1017.06 1016.81 1016.52 1016.59 1016.63 1016.87 1016.78 1016.69 1016.51 1016.48 1016.06 1015.37 1014.91 1014.62 1014.88 1014.83 1014.92
1011.11 1011.02 1011.05 1011.33 1011.34 1010.89 1010.66 1008.61 1006.53 1005.62 1005.74 1006.18 1006.93 1007.99 1008.71 1009.66 1010.59 1011.17 1011.71 1012.33 1012.88 1013.66 1013.97 1014.51 1015.11 1015.48 1015.67 1015.97 1016.34 1016.65 1016.94 1016.91 1016.95 1016.85 1016.49 1016.45 1016.59 1016.61 1016.49 1016.30 1016.28 1016.34 1016.10 1015.61 1015.16 1014.77 1014.79 1014.92 1015.12
1011.57 1011.02 1011.20 1011.69 1012.29 1011.89 1011.00 1009.50 1006.97 1005.94 1006.11 1006.70 1007.46 1008.51 1009.11 1010.00 1010.65 1011.42 1012.15 1012.57 1013.15 1013.79 1014.14 1014.36 1014.96 1015.57 1015.87 1015.97 1016.20 1016.52 1016.66 1016.70 1016.80 1016.84 1016.89 1016.80 1016.74 1016.65 1016.42 1016.34 1016.22 1016.06 1015.92 1015.69 1015.28 1014.93 1014.86 1015.07 1015.36
1011.85 1011.82 1011.91 1012.36 1012.70 1012.84 1011.58 1010.81 1007.45 1006.28 1007.02 1007.33 1007.82 1008.49 1009.12 1010.01 1010.71 1011.52 1012.15 1012.62 1013.14 1013.82 1014.20 1014.53 1015.12 1015.80 1016.10 1016.24 1016.12 1016.41 1016.51 1016.58 1016.78 1016.91 1016.92 1016.87 1016.86 1016.75 1016.45 1016.32 1016.04 1015.96 1015.84 1015.66 1015.39 1015.01 1014.98 1015.18 1015.53
1012.47 1012.84 1013.10 1013.46 1013.67 1013.63 1012.12 1010.91 1008.57 1007.45 1007.63 1007.79 1008.14 1008.84 1009.43 1010.20 1010.88 1011.75 1012.31 1012.87 1013.61 1014.06 1014.66 1014.94 1015.16 1015.73 1016.03 1016.16 1016.23 1016.39 1016.45 1016.58 1016.91 1017.09 1017.02 1016.88 1016.92 1017.04 1016.76 1016.38 1016.17 1016.02 1015.84 1015.61 1015.41 1015.11 1015.05 1015.31 1015.76
1013.14 1013.51 1014.67 1015.16 1015.17 1013.86 1012.71 1011.79 1008.93 1008.13 1007.96 1008.27 1008.41 1009.01 1009.65 1010.34 1011.03 1011.95 1012.68 1013.16 1013.81 1014.40 1014.92 1015.18 1015.37 1015.77 1016.10 1016.11 1016.25 1016.41 1016.44 1016.47 1016.81 1017.01 1017.05 1017.07 1017.13 1017.21 1017.27 1016.74 1016.46 1016.20 1015.75 1015.51 1015.33 1015.18 1015.38 1015.61 1015.96
1013.47 1013.42 1013.91 1014.44 1015.03 1014.25 1013.41 1011.58 1009.15 1008.53 1008.23 1008.54 1008.80 1009.16 1009.74 1010.52 1010.99 1011.93 1012.76 1013.12 1013.64 1014.28 1014.86 1015.19 1015.52 1015.72 1016.06 1016.14 1016.16 1016.33 1016.57 1016.63 1016.66 1016.82 1016.97 1016.99 1016.96 1017.22 1017.40 1017.00 1016.52 1016.17 1015.92 1015.65 1015.42 1015.42 1015.43 1015.62 1015.96
1013.96 1013.65 1013.51 1014.04 1015.28 1014.34 1012.40 1010.70 1009.71 1009.23 1009.10 1009.20 1009.46 1009.80 1010.13 1010.53 1011.06 1011.68 1012.35 1012.84 1013.44 1014.20 1014.62 1014.86 1015.20 1015.57 1015.97 1016.10 1016.11 1016.41 1016.65 1016.73 1016.67 1016.82 1016.96 1016.96 1016.87 1016.90 1017.29 1017.03 1016.70 1016.47 1016.09 1015.89 1015.79 1015.88 1015.85 1015.87 1016.14
1014.05 1013.59 1013.73 1014.04 1014.70 1014.06 1012.10 1010.74 1009.80 1010.02 1010.05 1010.14 1010.33 1010.43 1010.49 1010.69 1011.16 1011.57 1012.10 1012.45 1013.14 1013.67 1014.26 1014.63 1015.02 1015.40 1015.85 1016.04 1016.17 1016.35 1016.59 1016.79 1016.86 1017.01 1017.14 1016.92 1016.85 1016.78 1017.00 1017.14 1016.88 1016.71 1016.45 1016.17 1016.03 1016.26 1016.50 1016.69 1017.00
1014.46 1013.74 1013.39 1013.28 1013.50 1013.35 1012.70 1011.18 1010.01 1010.11 1010.48 1010.71 1010.89 1010.92 1010.83 1010.96 1011.23 1011.54 1011.90 1012.30 1012.78 1013.30 1013.81 1014.31 1014.83 1015.22 1015.75 1015.95 1016.05 1016.23 1016.44 1016.64 1016.83 1016.84 1017.04 1017.10 1016.81 1016.76 1016.87 1017.04 1016.93 1016.77 1016.59 1016.36 1016.24 1016.45 1016.82 1017.03 1017.43
1014.19 1013.43 1013.00 1013.13 1013.70 1013.58 1013.10 1011.72 1010.45 1010.55 1010.85 1011.01 1011.27 1011.33 1011.19 1011.16 1011.28 1011.42 1011.66 1012.26 1012.69 1013.39 1013.76 1014.02 1014.41 1014.87 1015.36 1015.78 1015.95 1016.21 1016.36 1016.50 1016.68 1016.79 1016.69 1016.96 1016.92 1016.88 1016.86 1016.94 1016.88 1016.72 1016.57 1016.35 1016.46 1016.70 1017.02 1017.31 1017.74
Wind_Speed
12 9 4 3 2 3 9 5 3 1 1 7 5 6 4 5 5 0 6 1 10 14 12 9 11 11 10 9 8 8 8 8 9 9 9 10 10 10 10 10 10 11 10 11 9 7 7 7 6
8 8 2 4 2 5 5 2 6 4 7 5 2 2 3 1 7 7 7 4 9 13 11 9 10 11 10 9 9 8 8 8 9 9 9 10 10 11 11 11 10 11 11 11 11 9 9 9 7
8 6 2 3 5 8 4 5 6 8 7 3 3 2 3 3 8 7 9 8 9 10 11 10 11 11 9 9 9 9 8 9 9 10 10 10 10 10 11 11 10 10 11 11 11 10 7 9 10
4 2 4 3 9 9 5 4 7 1 4 2 4 6 6 6 3 7 10 9 9 8 13 9 11 11 10 9 8 9 9 9 9 9 10 10 10 10 10 10 10 10 10 10 10 9 10 8 11
3 4 4 6 10 13 3 4 4 5 2 4 5 2 5 5 9 9 8 8 8 8 11 7 10 10 10 9 8 8 8 8 8 8 8 9 9 10 10 11 11 11 11 10 10 9 9 12 9
3 2 4 7 10 4 3 6 5 4 6 6 1 5 3 8 8 8 8 7 9 8 9 7 8 9 9 8 8 7 7 6 6 7 8 9 10 10 10 10 11 11 11 11 10 10 9 8 12
2 3 6 12 8 6 4 6 4 5 6 1 8 3 4 6 8 9 8 7 8 9 8 7 6 7 8 9 7 6 6 4 5 6 8 9 10 9 8 8 10 9 12 12 11 11 10 11 10
3 2 5 4 5 4 6 4 4 4 2 1 4 3 3 6 9 7 7 8 7 7 7 7 8 7 7 6 7 5 4 3 2 2 3 7 10 7 7 7 9 13 13 12 12 12 12 11 11
3 3 4 6 3 3 5 4 4 1 3 1 4 2 8 10 8 6 5 5 5 5 5 6 6 5 6 7 6 5 4 3 4 4 4 5 4 6 6 9 10 11 12 12 12 13 13 12 11
4 3 3 4 5 6 9 4 7 5 6 6 6 7 11 10 8 7 7 7 7 7 5 6 5 6 4 3 7 5 5 3 1 1 4 4 5 5 6 7 9 12 11 11 14 13 12 10 5
6 5 3 6 7 7 5 7 5 4 7 10 4 7 11 8 9 8 8 7 8 8 6 6 6 5 5 3 3 2 2 1 1 3 3 3 4 3 3 3 3 3 6 4 6 6 4 4 3
4 8 5 4 5 3 5 8 6 9 12 11 9 3 6 9 9 9 8 8 9 8 8 8 7 6 5 3 1 2 2 2 2 3 2 2 3 4 4 3 5 4 4 5 5 4 4 3 8
6 8 5 5 5 6 6 9 9 15 16 14 11 6 8 6 8 8 9 8 8 8 8 9 7 6 5 3 2 2 2 2 2 3 4 4 4 4 4 4 4 4 4 4 5 5 4 3 7
4 6 9 6 5 3 4 6 5 7 5 2 0 5 9 9 8 6 8 7 7 8 8 8 8 5 5 4 3 2 3 3 3 3 4 5 4 4 4 4 4 5 4 4 4 5 5 4 5
5 6 9 9 1 1 2 9 10 15 9 7 7 8 6 7 7 7 7 6 8 7 8 8 7 6 6 3 4 3 2 3 3 3 4 4 4 4 4 3 4 5 4 7 5 5 5 4 5
3 2 3 2 5 2 2 8 3 5 3 7 9 8 10 11 10 7 8 8 8 7 9 8 6 6 5 5 3 3 3 3 2 3 3 4 5 7 6 4 4 4 5 6 6 6 4 4 4
5 5 5 4 5 1 6 7 4 4 5 8 8 9 7 8 9 7 9 8 8 8 9 8 7 6 6 6 3 4 4 3 2 2 3 6 4 5 4 5 4 5 5 4 4 6 3 3 5
4 4 4 4 4 5 6 16 16 15 10 9 8 7 3 6 7 9 10 8 7 9 9 8 6 7 7 4 3 2 2 0 3 3 4 6 4 5 5 4 5 5 4 5 5 5 5 4 6
4 6 7 3 4 0 7 14 17 10 10 9 8 8 8 8 7 8 8 8 8 9 9 7 8 7 5 2 2 2 1 2 2 2 3 4 3 6 6 4 5 6 5 6 7 3 4 4 3
2 5 7 6 4 1 7 16 23 14 8 1 9 7 9 6 7 8 7 7 7 7 8 8 7 6 4 4 3 2 2 3 2 2 2 1 2 4 4 5 4 6 6 7 6 4 1 2 1
6 7 5 4 1 9 6 9 5 2 6 8 5 6 9 9 8 7 8 7 8 8 8 7 7 6 5 6 4 2 2 1 1 3 1 1 2 3 2 4 3 5 5 6 6 5 3 3 3
5 1 4 1 2 3 2 6 8 1 5 6 8 6 7 9 8 7 8 8 9 7 7 8 8 7 5 4 3 3 2 2 1 0 1 2 2 1 2 3 3 4 4 6 6 5 4 4 5
2 2 4 3 3 4 5 1 10 3 6 4 8 7 8 8 9 9 8 8 8 8 7 8 7 7 4 3 2 3 1 2 1 1 2 1 1 2 2 3 4 4 3 6 7 5 5 3 3
7 5 5 3 2 1 7 6 7 3 2 3 6 7 8 7 8 8 7 8 8 7 6 7 8 5 5 4 3 2 3 3 1 1 1 1 0 2 4 4 4 4 3 5 5 5 5 5 5
2 5 3 3 2 6 1 2 7 3 4 2 2 8 8 7 8 8 8 8 8 7 6 6 7 6 5 4 4 2 1 2 2 0 2 3 3 2 5 5 5 4 4 5 5 3 4 4 5
7 4 6 7 4 3 2 7 5 3 4 2 5 5 8 7 7 8 8 7 8 8 7 6 6 6 6 5 4 3 2 1 2 2 1 1 1 2 5 5 5 5 5 5 4 3 3 4 4
6 4 2 6 2 3 5 5 4 6 7 8 5 5 7 7 7 8 8 8 8 8 8 8 7 6 6 6 4 3 3 2 1 3 0 1 1 2 3 5 6 5 4 5 4 4 5 6 6
1 1 4 2 4 4 4 3 5 6 7 7 7 7 5 5 6 7 7 8 7 8 7 7 7 7 6 5 4 4 4 2 0 2 2 2 2 1 3 4 6 5 5 4 4 4 5 7 5
3 2 3 3 3 5 2 4 5 9 8 7 6 6 6 3 5 5 6 7 8 8 8 7 7 6 6 5 5 4 3 3 2 2 2 3 2 1 3 4 5 4 4 3 3 6 6 8 7
4 3 7 5 5 1 3 4 7 8 7 7 6 5 4 5 4 3 6 7 7 7 7 7 7 7 7 6 5 5 5 5 3 4 3 1 4 2 4 2 3 4 3 4 6 6 7 8 8
Wind_Direction
292 253 259 299 264 209 262 255 28 27 264 46 41 9 351 277 334 75 96 118 113 117 118 128 127 121 113 104 92 81 70 63 58 53 45 40 36 33 23 13 5 359 354 341 360 5 351 334 278
310 307 245 270 246 257 260 59 108 209 76 60 57 280 265 273 77 117 121 174 126 119 143 127 124 120 115 104 94 81 69 61 55 51 47 39 29 23 21 16 14 5 351 338 329 357 9 359 339
270 267 261 200 222 254 10 69 27 73 46 357 355 59 325 60 61 112 96 147 126 128 116 123 131 123 113 103 91 82 71 62 55 49 41 34 28 21 16 10 5 0 354 346 332 320 2 4 353
283 220 273 272 266 265 303 29 78 119 119 117 351 305 87 59 69 63 129 141 128 117 107 132 134 123 116 102 91 83 73 63 53 43 36 30 20 12 6 2 357 353 348 343 341 332 320 353 353
249 266 247 219 246 259 51 346 18 301 299 140 152 260 111 78 96 113 134 143 129 118 114 132 132 127 118 110 102 88 76 63 51 40 29 17 7 2 355 350 347 343 339 335 330 326 324 317 323
259 249 270 235 248 138 90 32 358 284 287 90 96 257 93 115 124 128 139 150 124 119 127 129 122 121 121 111 98 92 85 70 48 31 16 6 352 346 345 344 340 335 334 330 322 316 308 300 307
264 234 254 283 322 327 52 33 330 314 324 276 139 304 95 141 123 131 145 134 118 118 122 126 133 117 106 104 105 102 95 79 50 23 8 351 332 325 329 329 332 338 328 321 316 308 300 294 293
310 287 279 271 265 29 46 1 53 320 338 319 35 256 70 118 102 117 136 122 119 119 132 147 137 158 151 147 128 123 120 90 48 2 335 320 305 291 309 336 340 323 313 309 306 301 294 289 286
275 278 262 274 21 27 124 344 108 145 297 285 158 309 123 109 113 124 127 127 130 134 160 144 144 156 148 147 147 155 172 198 234 239 216 317 349 333 348 324 311 303 308 303 297 290 285 282 282
222 236 270 45 15 357 346 358 322 335 296 265 236 193 134 135 150 166 175 175 165 164 177 153 154 152 154 182 147 213 159 223 167 57 36 356 325 329 315 284 274 275 285 289 293 272 269 262 248
201 226 54 31 40 9 308 304 267 256 271 232 337 11 145 154 170 186 195 188 179 174 169 168 163 161 161 197 145 178 182 135 18 49 37 1 330 315 330 324 325 335 304 276 321 312 251 261 277
270 239 283 338 101 329 289 337 291 248 241 279 286 205 138 170 183 192 197 196 173 170 168 164 167 162 170 128 148 231 108 49 347 18 326 30 340 337 331 334 336 322 312 307 290 287 289 314 289
239 271 290 280 236 219 275 258 257 266 266 274 275 180 176 228 192 194 187 187 169 161 161 155 166 157 157 145 173 91 39 45 18 333 3 28 345 336 335 327 311 307 298 295 320 313 306 309 297
2 316 293 283 256 231 238 264 343 252 184 260 290 282 180 203 218 195 180 181 159 151 155 148 158 161 146 162 124 110 72 12 7 4 10 7 358 333 326 340 334 319 326 332 307 299 302 285 269
300 299 277 239 160 184 35 278 224 243 268 220 247 197 210 200 199 201 181 173 159 158 146 142 138 137 129 152 121 89 68 10 18 358 352 31 349 310 321 319 313 302 345 334 323 295 278 292 267
264 224 293 79 125 158 210 270 308 116 185 254 245 214 188 190 183 193 162 154 149 144 130 130 122 131 133 116 93 100 78 9 15 3 1 42 354 4 347 342 304 359 345 336 327 308 299 315 318
204 271 204 182 204 121 193 290 295 146 193 237 252 262 231 175 158 153 136 147 152 132 124 119 123 133 112 94 96 60 55 10 31 359 15 18 12 339 314 293 348 358 339 310 319 324 325 337 39
210 222 247 278 155 202 260 262 269 275 257 259 266 253 77 63 151 134 126 130 131 122 119 127 129 127 117 108 89 81 98 122 47 25 42 340 19 326 313 356 359 340 328 328 323 307 21 75 92
18 331 312 329 120 334 255 277 281 265 269 266 240 107 98 97 85 96 111 122 121 118 122 134 127 131 119 119 129 94 85 101 87 42 52 17 328 19 351 358 344 336 318 311 322 323 86 99 114
187 270 274 260 83 157 282 292 279 281 257 132 123 130 122 108 117 109 112 111 121 128 135 129 133 141 131 95 77 66 57 61 65 230 146 151 13 40 14 334 359 329 316 330 326 323 79 78 342
217 219 248 288 314 228 286 274 270 112 103 96 64 96 131 152 145 144 134 143 128 141 138 136 131 132 112 105 107 92 87 81 241 257 126 133 72 97 69 335 7 333 332 324 332 355 124 109 60
225 239 231 39 344 279 212 284 318 138 168 150 144 156 141 144 142 141 152 147 138 141 132 121 125 122 123 135 145 170 185 151 147 131 322 326 54 352 50 358 359 332 353 333 324 329 121 110 110
166 99 115 162 226 11 241 197 262 173 67 83 156 147 132 143 144 149 155 142 132 123 131 126 127 121 130 142 99 143 157 105 173 210 268 243 28 337 18 20 8 4 2 319 321 329 141 117 112
138 97 72 58 59 355 236 166 286 60 34 70 106 121 126 133 135 137 131 122 118 121 128 135 137 141 146 147 146 195 143 155 205 254 317 54 76 319 13 4 22 339 323 333 326 331 131 135 110
231 126 26 356 18 223 56 81 248 68 50 10 359 138 136 137 138 136 138 137 138 149 155 150 154 150 164 168 158 179 183 144 260 36 86 29 1 1 348 345 355 330 351 344 342 36 81 111 141
184 175 164 195 188 202 75 232 261 73 37 162 74 75 122 148 144 151 162 167 155 163 166 159 177 159 168 175 175 158 202 199 219 98 44 86 79 356 348 331 339 354 358 350 13 42 74 83 71
193 195 163 102 45 57 209 238 41 68 56 74 77 104 149 152 152 166 171 178 158 166 179 166 176 167 173 178 164 167 187 254 259 87 357 240 218 77 346 334 334 356 7 1 54 51 59 71 72
239 267 94 338 151 225 294 267 175 101 89 74 54 50 57 140 156 179 176 171 158 166 175 171 173 173 176 174 171 177 183 197 290 54 299 305 296 81 34 4 344 6 357 20 85 86 76 84 75
176 203 224 148 156 176 185 260 118 122 107 95 64 43 44 71 183 192 184 175 162 161 168 172 168 167 168 176 179 168 165 173 202 201 262 270 290 19 55 33 347 354 343 28 107 101 106 99 103
323 230 181 141 227 146 139 248 129 110 98 90 64 32 16 33 28 197 184 167 166 172 172 178 173 172 175 179 177 180 189 182 194 227 227 83 316 360 83 19 342 321 355 10 118 115 118 117 118